SL-16 DEB, 22575

Orbit data source: Space-Track

SL-16 DEB, 22575 is space debris in LEO originally from a launch on Fri, 26 Mar 1993 UTC launched from the Tyuratam Missile And Space Complex (TTMTR). Debris objects in space refer to the collection of defunct objects orbiting the Earth. Examples of debris include non-operational satellites, rocket bodies, and fragments generated from explosions, collisions, or faulty payload assembly.

Loading next visibility...
Identifier
22575, 1993-016C
Orbit
LEO
Country
Flag of CISCIS
Related business
Manufacturer
Yuzhnoe
Mission
Spacecraft
Bus & Motor
SEP MOTOR COVER, Unknown motor
Mass
~0 kg wet, ~1 kg dry
Launch date (UTC)
1993-03-26 (33 years ago)
Launch vehicle
Unknown
Launch site
Tyuratam Missile And Space Complex (TTMTR)
Object type
Payload
Rocket body
Debris
Shape & HBR
CONE, 0.1 m
Radar Cross Section
Medium (>0.1 m² and <1 m²)

Expand to show TLE details & history
Last TLE update: 14 hours ago

TLE from 14 hours ago
0 SL-16 DEB
1 22575U 93016C   26255.06160968  .00000084  00000-0  11666-3 0  9991
2 22575  71.0045 125.9769 0203807  42.5011 105.2063 13.73470379676147
Epoch: 2026-09-12T01:28Z
TLE epoch observation values (Epoch: 2026-09-12T01:28:43.076Z)
Latitude
28.3167°
Longitude
-77.91216°
Altitude
1,032.284 km
Speed
7.317 km/s
True Right ascension
19h 41m 22s
True Declination
28° 10' 43"
Sunlit
Object was in daylight at epoch
Visualization orbit readout
Latitude
Unknown
Longitude
Unknown
Altitude
Unknown
Speed
Unknown
Apparent Right ascension
Unknown
Apparent Declination
Unknown
Sunlit
N/A
Visualization observer readout
Local Sidereal Time
07:40:05
Azimuth
Unknown
Elevation
Unknown
Doppler factor
Unknown
Orbital elements
Apogee altitude
1,135.17 km
Perigee altitude
835.034 km
Semi-major axis
7,363.239 km
Eccentricity
0.02038
Inclination
71.0045°
RAAN
125.9769°
Arg. of periapsis
42.5011°
True anomaly
107.44445°
Mean anomaly
105.2063°
Eccentric anomaly
106.32694°
Mean motion
3.4351 °/min
Orbital period
104.8 mins
BSTAR
0.00011666
Loading maneuver chart data...
Computing Atmospheric mass density...
Loading historical data...
Loading historical data...
Loading historical data...
Loading historical data...
Loading historical data...
Loading historical data...
Loading historical data...

Documentation

Showing up to 5 results
|